| time (UTC) | temp F | wind direction | speed MPH | gust MPH | rain 1hr in | rain 24hr in | rain mn in | humidity % | barometer mb |
| 20260906205459 | 67 | 305 | 0.0 | 4.0 | 0.00 | 0.30 | 0.01 | 83 | 1015.9 |
| 20260906205000 | 66 | 92 | 3.0 | 4.0 | 0.00 | 0.30 | 0.01 | 83 | 1015.7 |
| 20260906203000 | 65 | 77 | 1.0 | 3.0 | 0.00 | 0.30 | 0.01 | 85 | 1015.7 |
| 20260906202459 | 66 | 77 | 0.0 | 1.0 | 0.00 | 0.30 | 0.01 | 85 | 1015.7 |
| 20260906202000 | 66 | 77 | 0.0 | 2.0 | 0.00 | 0.30 | 0.01 | 85 | 1015.7 |
| 20260906201001 | 65 | 77 | 0.0 | 2.0 | 0.00 | 0.30 | 0.01 | 84 | 1015.7 |
| 20260906200501 | 65 | 77 | 1.0 | 2.0 | 0.00 | 0.30 | 0.01 | 83 | 1015.7 |
| 20260906195458 | 66 | 77 | 0.0 | 4.0 | 0.00 | 0.30 | 0.01 | 85 | 1015.6 |
| 20260906194959 | 65 | 77 | 0.0 | 4.0 | 0.00 | 0.30 | 0.01 | 83 | 1015.6 |
| 20260906193959 | 65 | 82 | 1.0 | 3.0 | 0.00 | 0.30 | 0.01 | 83 | 1015.5 |
| 20260906192959 | 65 | 82 | 1.0 | 3.0 | 0.00 | 0.30 | 0.01 | 82 | 1015.6 |
| 20260906192459 | 65 | 71 | 0.0 | 1.0 | 0.00 | 0.30 | 0.01 | 85 | 1015.6 |
| 20260906192000 | 65 | 71 | 0.0 | 3.0 | 0.00 | 0.30 | 0.01 | 83 | 1015.6 |
| 20260906191459 | 65 | 71 | 2.0 | 2.0 | 0.00 | 0.30 | 0.01 | 82 | 1015.6 |
| 20260906190959 | 65 | 72 | 0.0 | 4.0 | 0.00 | 0.30 | 0.01 | 85 | 1015.5 |
| 20260906190459 | 65 | 72 | 0.0 | 5.0 | 0.00 | 0.30 | 0.01 | 82 | 1015.6 |
| 20260906190002 | 65 | 60 | 4.0 | 6.0 | 0.00 | 0.30 | 0.01 | 81 | 1015.6 |
| 20260906185500 | 66 | 77 | 3.0 | 4.0 | 0.00 | 0.30 | 0.01 | 82 | 1015.5 |
| 20260906184959 | 66 | 77 | 2.0 | 4.0 | 0.00 | 0.30 | 0.01 | 81 | 1015.6 |
| 20260906184501 | 66 | 79 | 0.0 | 4.0 | 0.00 | 0.30 | 0.01 | 80 | 1015.7 |
| 20260906184000 | 66 | 49 | 1.0 | 8.0 | 0.00 | 0.30 | 0.01 | 81 | 1015.8 |
| 20260906183459 | 66 | 56 | 2.0 | 9.0 | 0.00 | 0.30 | 0.01 | 80 | 1015.8 |
| 20260906182500 | 68 | 66 | 8.0 | 10.0 | 0.00 | 0.30 | 0.01 | 78 | 1015.9 |
| 20260906182001 | 68 | 89 | 3.0 | 6.0 | 0.00 | 0.30 | 0.01 | 80 | 1015.8 |
| 20260906181500 | 67 | 52 | 3.0 | 9.0 | 0.00 | 0.30 | 0.01 | 81 | 1015.9 |
| 20260906181000 | 67 | 91 | 2.0 | 9.0 | 0.00 | 0.30 | 0.01 | 82 | 1015.9 |
| 20260906180500 | 66 | 46 | 6.0 | 11.0 | 0.00 | 0.30 | 0.01 | 83 | 1015.9 |
| 20260906180000 | 66 | 52 | 5.0 | 11.0 | 0.00 | 0.30 | 0.01 | 82 | 1016.0 |
| 20260906175459 | 67 | 69 | 5.0 | 9.0 | 0.00 | 0.30 | 0.01 | 85 | 1015.9 |
| 20260906175000 | 66 | 76 | 3.0 | 9.0 | 0.00 | 0.30 | 0.01 | 84 | 1016.0 |
| 20260906174458 | 67 | 82 | 5.0 | 12.0 | 0.00 | 0.30 | 0.01 | 84 | 1016.0 |
| 20260906173958 | 67 | 55 | 10.0 | 12.0 | 0.00 | 0.30 | 0.01 | 82 | 1015.9 |
| 20260906173459 | 67 | 69 | 5.0 | 9.0 | 0.00 | 0.30 | 0.01 | 84 | 1016.0 |
| 20260906172959 | 66 | 59 | 5.0 | 11.0 | 0.00 | 0.30 | 0.01 | 84 | 1016.0 |
| 20260906172459 | 66 | 39 | 9.0 | 11.0 | 0.00 | 0.30 | 0.01 | 86 | 1016.0 |
| 20260906171958 | 65 | 69 | 9.0 | 10.0 | 0.00 | 0.30 | 0.01 | 88 | 1016.1 |
| 20260906170958 | 65 | 69 | 4.0 | 9.0 | 0.00 | 0.30 | 0.01 | 86 | 1016.2 |
| 20260906170459 | 65 | 65 | 3.0 | 9.0 | 0.00 | 0.30 | 0.01 | 87 | 1016.3 |
| 20260906165959 | 64 | 71 | 5.0 | 12.0 | 0.00 | 0.30 | 0.01 | 86 | 1016.2 |
| 20260906165459 | 65 | 49 | 5.0 | 12.0 | 0.00 | 0.30 | 0.01 | 84 | 1016.3 |
| 20260906164959 | 65 | 87 | 7.0 | 8.0 | 0.00 | 0.30 | 0.01 | 84 | 1016.2 |
| 20260906164459 | 66 | 48 | 0.0 | 4.0 | 0.00 | 0.30 | 0.01 | 83 | 1016.1 |
| 20260906163959 | 66 | 44 | 2.0 | 6.0 | 0.00 | 0.30 | 0.01 | 82 | 1016.0 |
| 20260906163458 | 66 | 65 | 3.0 | 7.0 | 0.00 | 0.30 | 0.01 | 83 | 1016.1 |
| 20260906162959 | 66 | 69 | 0.0 | 4.0 | 0.00 | 0.30 | 0.01 | 82 | 1016.1 |
| 20260906162459 | 66 | 84 | 0.0 | 3.0 | 0.00 | 0.30 | 0.01 | 82 | 1016.1 |
| 20260906161459 | 67 | 86 | 3.0 | 4.0 | 0.00 | 0.30 | 0.01 | 85 | 1016.2 |
| 20260906160959 | 66 | 66 | 2.0 | 8.0 | 0.00 | 0.30 | 0.01 | 84 | 1016.2 |
| 20260906160459 | 65 | 79 | 4.0 | 8.0 | 0.00 | 0.30 | 0.01 | 82 | 1016.2 |
| 20260906160000 | 65 | 72 | 1.0 | 6.0 | 0.00 | 0.30 | 0.01 | 83 | 1016.3 |
| 20260906155459 | 65 | 76 | 3.0 | 5.0 | 0.00 | 0.30 | 0.01 | 86 | 1016.3 |
| 20260906154959 | 64 | 49 | 2.0 | 5.0 | 0.00 | 0.30 | 0.01 | 85 | 1016.4 |
| 20260906154459 | 64 | 73 | 2.0 | 6.0 | 0.00 | 0.30 | 0.01 | 86 | 1016.5 |
| 20260906153959 | 64 | 77 | 2.0 | 6.0 | 0.00 | 0.30 | 0.01 | 87 | 1016.5 |
| 20260906153459 | 64 | 107 | 3.0 | 8.0 | 0.00 | 0.30 | 0.01 | 86 | 1016.6 |
| 20260906153000 | 63 | 82 | 4.0 | 8.0 | 0.00 | 0.30 | 0.01 | 87 | 1016.5 |
| 20260906152459 | 63 | 76 | 3.0 | 5.0 | 0.00 | 0.30 | 0.01 | 88 | 1016.5 |
| 20260906151500 | 63 | 68 | 0.0 | 6.0 | 0.00 | 0.30 | 0.01 | 88 | 1016.5 |
| 20260906150959 | 63 | 21 | 2.0 | 6.0 | 0.00 | 0.30 | 0.01 | 88 | 1016.4 |
| 20260906150459 | 63 | 78 | 3.0 | 6.0 | 0.00 | 0.30 | 0.01 | 89 | 1016.5 |
| 20260906150000 | 63 | 92 | 4.0 | 6.0 | 0.00 | 0.30 | 0.01 | 88 | 1016.4 |
| 20260906145459 | 63 | 89 | 3.0 | 7.0 | 0.00 | 0.30 | 0.01 | 90 | 1016.5 |
| 20260906144959 | 62 | 81 | 5.0 | 8.0 | 0.00 | 0.30 | 0.01 | 91 | 1016.4 |
| 20260906144459 | 62 | 57 | 3.0 | 8.0 | 0.00 | 0.30 | 0.01 | 91 | 1016.4 |
| 20260906140959 | 61 | 49 | 7.0 | 12.0 | 0.00 | 0.30 | 0.01 | 92 | 1016.3 |
| 20260906140502 | 61 | 64 | 6.0 | 10.0 | 0.00 | 0.30 | 0.01 | 92 | 1016.3 |
| 20260906140002 | 61 | 81 | 10.0 | 10.0 | 0.00 | 0.30 | 0.01 | 93 | 1016.3 |
| 20260906135458 | 61 | 79 | 7.0 | 11.0 | 0.00 | 0.30 | 0.01 | 93 | 1016.2 |
| 20260906134959 | 60 | 68 | 8.0 | 11.0 | 0.00 | 0.30 | 0.01 | 93 | 1016.2 |
| 20260906134458 | 60 | 55 | 4.0 | 11.0 | 0.00 | 0.30 | 0.01 | 93 | 1016.2 |
| 20260906133959 | 60 | 63 | 4.0 | 10.0 | 0.00 | 0.30 | 0.01 | 93 | 1016.1 |
| 20260906133459 | 60 | 76 | 5.0 | 11.0 | 0.00 | 0.30 | 0.01 | 93 | 1016.1 |
| 20260906132958 | 60 | 47 | 4.0 | 11.0 | 0.00 | 0.30 | 0.01 | 94 | 1016.2 |
| 20260906132459 | 60 | 79 | 7.0 | 10.0 | 0.00 | 0.30 | 0.01 | 94 | 1016.2 |
| 20260906131958 | 59 | 53 | 3.0 | 9.0 | 0.00 | 0.30 | 0.01 | 93 | 1016.2 |
| 20260906131458 | 59 | 77 | 7.0 | 11.0 | 0.00 | 0.30 | 0.01 | 93 | 1016.1 |
| 20260906130958 | 59 | 71 | 5.0 | 11.0 | 0.00 | 0.30 | 0.01 | 93 | 1016.0 |
| 20260906130459 | 59 | 71 | 4.0 | 11.0 | 0.00 | 0.30 | 0.01 | 93 | 1016.0 |
| 20260906130001 | 59 | 63 | 3.0 | 12.0 | 0.00 | 0.30 | 0.01 | 94 | 1015.9 |
| 20260906125459 | 59 | 14 | 5.0 | 12.0 | 0.00 | 0.30 | 0.01 | 93 | 1016.0 |
| 20260906124959 | 59 | 69 | 5.0 | 10.0 | 0.00 | 0.30 | 0.01 | 93 | 1015.9 |
| 20260906124459 | 59 | 74 | 7.0 | 8.0 | 0.00 | 0.30 | 0.01 | 93 | 1016.0 |
| 20260906122959 | 59 | 79 | 7.0 | 11.0 | 0.00 | 0.30 | 0.01 | 93 | 1015.6 |
| 20260906122459 | 59 | 76 | 9.0 | 10.0 | 0.00 | 0.30 | 0.01 | 93 | 1015.6 |
| 20260906121959 | 59 | 70 | 4.0 | 10.0 | 0.00 | 0.30 | 0.01 | 93 | 1015.5 |
| 20260906121501 | 59 | 73 | 5.0 | 11.0 | 0.00 | 0.30 | 0.01 | 93 | 1015.4 |
| 20260906120958 | 59 | 71 | 6.0 | 11.0 | 0.00 | 0.30 | 0.01 | 93 | 1015.3 |
| 20260906120459 | 59 | 56 | 5.0 | 12.0 | 0.00 | 0.30 | 0.01 | 93 | 1015.4 |
| 20260906115958 | 59 | 80 | 8.0 | 11.0 | 0.00 | 0.30 | 0.01 | 93 | 1015.4 |
| 20260906115459 | 59 | 68 | 9.0 | 11.0 | 0.00 | 0.30 | 0.01 | 93 | 1015.3 |
| 20260906114959 | 59 | 87 | 5.0 | 9.0 | 0.00 | 0.30 | 0.01 | 93 | 1015.2 |
| 20260906114500 | 59 | 65 | 3.0 | 8.0 | 0.00 | 0.30 | 0.01 | 93 | 1015.2 |
| 20260906113958 | 59 | 53 | 3.0 | 8.0 | 0.00 | 0.30 | 0.01 | 93 | 1015.2 |
| 20260906113459 | 59 | 82 | 3.0 | 10.0 | 0.00 | 0.30 | 0.01 | 93 | 1015.0 |
| 20260906112958 | 58 | 71 | 3.0 | 9.0 | 0.00 | 0.30 | 0.01 | 93 | 1014.9 |
| 20260906111958 | 58 | 80 | 4.0 | 8.0 | 0.00 | 0.30 | 0.01 | 93 | 1014.8 |
| 20260906111459 | 58 | 67 | 5.0 | 7.0 | 0.00 | 0.30 | 0.01 | 93 | 1014.9 |
| 20260906110959 | 58 | 65 | 2.0 | 5.0 | 0.00 | 0.30 | 0.01 | 93 | 1014.8 |
| 20260906110000 | 58 | 58 | 4.0 | 6.0 | 0.00 | 0.30 | 0.01 | 93 | 1014.5 |
| 20260906104958 | 58 | 60 | 5.0 | 6.0 | 0.00 | 0.30 | 0.01 | 93 | 1014.5 |
| 20260906103958 | 58 | 66 | 3.0 | 6.0 | 0.00 | 0.30 | 0.01 | 93 | 1014.3 |
| 20260906103458 | 58 | 61 | 4.0 | 5.0 | 0.00 | 0.30 | 0.01 | 93 | 1014.2 |
| 20260906102958 | 58 | 84 | 3.0 | 7.0 | 0.00 | 0.30 | 0.01 | 93 | 1014.1 |
| 20260906102458 | 58 | 69 | 4.0 | 8.0 | 0.00 | 0.30 | 0.01 | 93 | 1014.3 |
| 20260906101958 | 58 | 74 | 5.0 | 7.0 | 0.00 | 0.30 | 0.01 | 94 | 1014.2 |
| 20260906101458 | 58 | 67 | 4.0 | 7.0 | 0.00 | 0.30 | 0.01 | 94 | 1014.2 |
| 20260906100459 | 57 | 67 | 4.0 | 6.0 | 0.00 | 0.30 | 0.01 | 93 | 1014.0 |
| 20260906095458 | 57 | 76 | 5.0 | 9.0 | 0.00 | 0.30 | 0.01 | 94 | 1013.8 |
| 20260906094959 | 57 | 55 | 6.0 | 8.0 | 0.00 | 0.30 | 0.01 | 94 | 1013.8 |
| 20260906094459 | 57 | 73 | 4.0 | 6.0 | 0.00 | 0.30 | 0.01 | 94 | 1013.8 |
| 20260906094000 | 58 | 61 | 3.0 | 5.0 | 0.00 | 0.30 | 0.01 | 94 | 1013.8 |
| 20260906093458 | 57 | 54 | 3.0 | 6.0 | 0.00 | 0.30 | 0.01 | 94 | 1013.7 |
| 20260906092959 | 57 | 68 | 3.0 | 4.0 | 0.00 | 0.30 | 0.01 | 94 | 1013.8 |
| 20260906092458 | 57 | 73 | 3.0 | 4.0 | 0.00 | 0.30 | 0.01 | 94 | 1013.7 |
| 20260906091958 | 58 | 70 | 3.0 | 6.0 | 0.00 | 0.30 | 0.01 | 94 | 1013.6 |
| 20260906091459 | 58 | 74 | 3.0 | 6.0 | 0.00 | 0.30 | 0.01 | 94 | 1013.5 |
| 20260906090458 | 58 | 78 | 3.0 | 6.0 | 0.00 | 0.30 | 0.01 | 94 | 1013.5 |
| 20260906085958 | 58 | 58 | 3.0 | 9.0 | 0.00 | 0.30 | 0.01 | 94 | 1013.4 |
| 20260906085457 | 58 | 79 | 4.0 | 9.0 | 0.00 | 0.30 | 0.01 | 94 | 1013.5 |
| 20260906083957 | 59 | 69 | 9.0 | 11.0 | 0.00 | 0.30 | 0.01 | 94 | 1013.5 |
| 20260906083457 | 59 | 58 | 5.0 | 10.0 | 0.00 | 0.30 | 0.01 | 94 | 1013.5 |
| 20260906082957 | 59 | 68 | 4.0 | 10.0 | 0.00 | 0.30 | 0.01 | 94 | 1013.6 |
| 20260906082457 | 59 | 70 | 4.0 | 9.0 | 0.00 | 0.30 | 0.01 | 94 | 1013.6 |
| 20260906081957 | 59 | 39 | 6.0 | 9.0 | 0.00 | 0.30 | 0.01 | 94 | 1013.5 |
| 20260906081458 | 59 | 73 | 8.0 | 9.0 | 0.00 | 0.30 | 0.01 | 94 | 1013.5 |
| 20260906080957 | 60 | 77 | 5.0 | 9.0 | 0.00 | 0.30 | 0.01 | 94 | 1013.5 |
| 20260906080458 | 60 | 70 | 4.0 | 8.0 | 0.00 | 0.30 | 0.01 | 94 | 1013.4 |
| 20260906080001 | 60 | 73 | 5.0 | 5.0 | 0.00 | 0.30 | 0.01 | 94 | 1013.3 |
| 20260906075458 | 60 | 59 | 2.0 | 5.0 | 0.00 | 0.30 | 0.01 | 94 | 1013.3 |
| 20260906074959 | 60 | 80 | 4.0 | 5.0 | 0.00 | 0.30 | 0.01 | 94 | 1013.3 |
| 20260906074458 | 60 | 64 | 3.0 | 5.0 | 0.00 | 0.30 | 0.01 | 94 | 1013.2 |
| 20260906073959 | 60 | 77 | 5.0 | 5.0 | 0.00 | 0.30 | 0.01 | 94 | 1013.3 |
| 20260906073458 | 60 | 78 | 4.0 | 4.0 | 0.00 | 0.30 | 0.01 | 94 | 1013.3 |
| 20260906072959 | 60 | 77 | 1.0 | 2.0 | 0.00 | 0.30 | 0.01 | 94 | 1013.3 |
| 20260906071459 | 59 | 77 | 0.0 | 4.0 | 0.00 | 0.30 | 0.01 | 94 | 1013.4 |
| 20260906070959 | 59 | 54 | 2.0 | 4.0 | 0.00 | 0.30 | 0.01 | 94 | 1013.4 |
| 20260906070458 | 59 | 59 | 3.0 | 4.0 | 0.00 | 0.30 | 0.01 | 94 | 1013.4 |
| 20260906065457 | 59 | 54 | 0.0 | 3.0 | 0.01 | 0.30 | 0.01 | 94 | 1013.3 |
| 20260906064957 | 59 | 65 | 2.0 | 4.0 | 0.01 | 0.30 | 0.01 | 94 | 1013.4 |
| 20260906064458 | 59 | 62 | 3.0 | 4.0 | 0.01 | 0.30 | 0.01 | 94 | 1013.4 |
| 20260906063957 | 59 | 65 | 3.0 | 3.0 | 0.01 | 0.30 | 0.01 | 94 | 1013.4 |
| 20260906063457 | 59 | 65 | 2.0 | 2.0 | 0.01 | 0.30 | 0.01 | 94 | 1013.5 |
| 20260906062958 | 59 | 65 | 0.0 | 2.0 | 0.01 | 0.30 | 0.01 | 94 | 1013.5 |
| 20260906062458 | 59 | 65 | 2.0 | 2.0 | 0.01 | 0.30 | 0.01 | 94 | 1013.6 |
| 20260906061957 | 59 | 65 | 0.0 | 3.0 | 0.01 | 0.30 | 0.01 | 94 | 1013.7 |
| 20260906061457 | 59 | 65 | 2.0 | 4.0 | 0.01 | 0.30 | 0.01 | 94 | 1013.7 |
| 20260906060958 | 59 | 57 | 3.0 | 4.0 | 0.01 | 0.30 | 0.01 | 94 | 1013.7 |
| 20260906060457 | 59 | 36 | 0.0 | 2.0 | 0.01 | 0.30 | 0.01 | 94 | 1013.5 |
| 20260906055958 | 59 | 69 | 0.0 | 0.0 | 0.00 | 0.29 | 0.00 | 94 | 1013.6 |
| 20260906055458 | 59 | 69 | 0.0 | 0.0 | 0.00 | 0.29 | 0.00 | 94 | 1013.6 |
| 20260906054957 | 59 | 69 | 0.0 | 0.0 | 0.00 | 0.29 | 0.00 | 94 | 1013.7 |
| 20260906054458 | 59 | 69 | 0.0 | 0.0 | 0.00 | 0.29 | 0.00 | 94 | 1013.6 |
| 20260906053957 | 59 | 69 | 0.0 | 1.0 | 0.00 | 0.29 | 0.00 | 94 | 1013.6 |
| 20260906052958 | 59 | 69 | 2.0 | 9.0 | 0.00 | 0.29 | 0.00 | 94 | 1013.6 |
| 20260906052457 | 59 | 65 | 1.0 | 9.0 | 0.00 | 0.29 | 0.00 | 94 | 1013.6 |
| 20260906051957 | 59 | 42 | 1.0 | 4.0 | 0.00 | 0.29 | 0.00 | 94 | 1013.6 |
| 20260906051457 | 59 | 55 | 2.0 | 4.0 | 0.00 | 0.29 | 0.00 | 94 | 1013.6 |
| 20260906050458 | 59 | 55 | 3.0 | 9.0 | 0.00 | 0.29 | 0.00 | 94 | 1013.7 |
| 20260906050002 | 59 | 58 | 1.0 | 9.0 | 0.00 | 0.29 | 0.00 | 94 | 1013.7 |
| 20260906045501 | 59 | 80 | 4.0 | 6.0 | 0.00 | 0.29 | 0.00 | 94 | 1013.7 |
| 20260906045001 | 59 | 40 | 4.0 | 6.0 | 0.00 | 0.29 | 0.00 | 94 | 1013.8 |
| 20260906044500 | 59 | 68 | 6.0 | 6.0 | 0.00 | 0.29 | 0.00 | 94 | 1013.8 |
| 20260906044001 | 59 | 53 | 3.0 | 5.0 | 0.00 | 0.29 | 0.00 | 94 | 1013.8 |
| 20260906043501 | 60 | 54 | 2.0 | 9.0 | 0.00 | 0.29 | 0.00 | 94 | 1013.8 |
| 20260906043000 | 60 | 73 | 2.0 | 12.0 | 0.00 | 0.29 | 0.00 | 94 | 1013.7 |
| 20260906042500 | 61 | 57 | 5.0 | 12.0 | 0.00 | 0.29 | 0.00 | 94 | 1013.5 |
| 20260906042001 | 62 | 45 | 6.0 | 10.0 | 0.00 | 0.29 | 0.00 | 94 | 1013.5 |
| 20260906041501 | 63 | 73 | 2.0 | 4.0 | 0.00 | 0.29 | 0.00 | 94 | 1013.4 |
| 20260906041000 | 63 | 67 | 0.0 | 0.0 | 0.00 | 0.29 | 0.00 | 94 | 1013.4 |
| 20260906040500 | 63 | 67 | 0.0 | 0.0 | 0.00 | 0.29 | 0.00 | 94 | 1013.4 |
| 20260906040004 | 63 | 67 | 0.0 | 0.0 | 0.00 | 0.29 | 0.00 | 95 | 1013.3 |
| 20260906035000 | 62 | 67 | 0.0 | 0.0 | 0.00 | 0.29 | 0.29 | 94 | 1013.3 |
| 20260906034000 | 62 | 67 | 0.0 | 0.0 | 0.00 | 0.29 | 0.29 | 94 | 1013.3 |
| 20260906033501 | 62 | 67 | 0.0 | 0.0 | 0.00 | 0.29 | 0.29 | 94 | 1013.2 |
| 20260906033000 | 62 | 67 | 0.0 | 0.0 | 0.00 | 0.29 | 0.29 | 94 | 1013.1 |
| 20260906032501 | 62 | 67 | 0.0 | 0.0 | 0.00 | 0.29 | 0.29 | 94 | 1013.2 |
| 20260906032001 | 62 | 67 | 0.0 | 0.0 | 0.00 | 0.29 | 0.29 | 94 | 1013.1 |
| 20260906031001 | 62 | 67 | 0.0 | 1.0 | 0.00 | 0.29 | 0.29 | 94 | 1012.9 |
| 20260906030500 | 62 | 67 | 1.0 | 1.0 | 0.01 | 0.29 | 0.29 | 94 | 1013.0 |
| 20260906030004 | 62 | 67 | 0.0 | 0.0 | 0.01 | 0.29 | 0.29 | 94 | 1013.1 |
| 20260906025500 | 62 | 67 | 0.0 | 2.0 | 0.01 | 0.29 | 0.29 | 94 | 1013.2 |
| 20260906025000 | 62 | 67 | 0.0 | 4.0 | 0.03 | 0.29 | 0.29 | 93 | 1013.2 |
| 20260906024500 | 63 | 68 | 0.0 | 4.0 | 0.05 | 0.29 | 0.29 | 93 | 1013.2 |
| 20260906024001 | 63 | 82 | 1.0 | 3.0 | 0.10 | 0.29 | 0.29 | 93 | 1013.0 |
| 20260906023500 | 63 | 82 | 1.0 | 3.0 | 0.29 | 0.29 | 0.29 | 93 | 1013.0 |
| 20260906022501 | 63 | 51 | 4.0 | 4.0 | 0.29 | 0.29 | 0.29 | 93 | 1013.1 |
| 20260906022000 | 63 | 47 | 3.0 | 5.0 | 0.29 | 0.29 | 0.29 | 93 | 1013.1 |
| 20260906021501 | 63 | 53 | 1.0 | 5.0 | 0.29 | 0.29 | 0.29 | 93 | 1013.1 |
| 20260906021001 | 63 | 63 | 3.0 | 4.0 | 0.29 | 0.29 | 0.29 | 93 | 1013.0 |
| 20260906020500 | 64 | 52 | 2.0 | 7.0 | 0.28 | 0.28 | 0.28 | 93 | 1013.0 |
| 20260906020000 | 64 | 54 | 1.0 | 7.0 | 0.28 | 0.28 | 0.28 | 93 | 1013.0 |
| 20260906015459 | 64 | 42 | 2.0 | 6.0 | 0.28 | 0.28 | 0.28 | 93 | 1013.0 |
| 20260906013959 | 64 | 65 | 1.0 | 6.0 | 0.17 | 0.17 | 0.17 | 93 | 1013.0 |
| 20260906013459 | 64 | 43 | 5.0 | 5.0 | 0.00 | 0.00 | 0.00 | 92 | 1012.8 |
| 20260906012959 | 65 | 72 | 2.0 | 2.0 | 0.00 | 0.00 | 0.00 | 92 | 1012.7 |
| 20260906012459 | 64 | 72 | 0.0 | 1.0 | 0.00 | 0.00 | 0.00 | 92 | 1012.7 |
| 20260906011959 | 64 | 72 | 0.0 | 3.0 | 0.00 | 0.00 | 0.00 | 92 | 1012.8 |
| 20260906011500 | 64 | 72 | 0.0 | 3.0 | 0.00 | 0.00 | 0.00 | 92 | 1012.7 |
| 20260906010959 | 64 | 72 | 0.0 | 0.0 | 0.00 | 0.00 | 0.00 | 91 | 1012.7 |
| 20260906010501 | 65 | 72 | 0.0 | 0.0 | 0.00 | 0.00 | 0.00 | 91 | 1012.5 |
| 20260906010003 | 65 | 72 | 0.0 | 0.0 | 0.00 | 0.00 | 0.00 | 91 | 1012.5 |
| 20260906005501 | 65 | 72 | 0.0 | 0.0 | 0.00 | 0.00 | 0.00 | 90 | 1012.4 |
| 20260906005000 | 65 | 72 | 0.0 | 0.0 | 0.00 | 0.00 | 0.00 | 90 | 1012.5 |
| 20260906003000 | 66 | 72 | 2.0 | 3.0 | 0.00 | 0.00 | 0.00 | 86 | 1012.4 |
| 20260906002500 | 67 | 72 | 2.0 | 4.0 | 0.00 | 0.00 | 0.00 | 86 | 1012.2 |
| 20260906001959 | 67 | 62 | 1.0 | 4.0 | 0.00 | 0.00 | 0.00 | 85 | 1012.0 |
| 20260906001459 | 67 | 44 | 2.0 | 6.0 | 0.00 | 0.00 | 0.00 | 84 | 1012.0 |
| 20260906001001 | 67 | 39 | 4.0 | 6.0 | 0.00 | 0.00 | 0.00 | 83 | 1011.9 |
| 20260906000500 | 67 | 65 | 4.0 | 7.0 | 0.00 | 0.00 | 0.00 | 83 | 1011.9 |
| 20260905235959 | 67 | 53 | 2.0 | 4.0 | 0.00 | 0.00 | 0.00 | 82 | 1011.9 |
| 20260905235459 | 68 | 81 | 2.0 | 5.0 | 0.00 | 0.00 | 0.00 | 82 | 1011.9 |
| 20260905234959 | 68 | 67 | 3.0 | 7.0 | 0.00 | 0.00 | 0.00 | 82 | 1011.9 |
| 20260905234459 | 68 | 71 | 3.0 | 7.0 | 0.00 | 0.00 | 0.00 | 82 | 1011.8 |
| 20260905232959 | 68 | 66 | 4.0 | 5.0 | 0.00 | 0.00 | 0.00 | 82 | 1011.6 |
| 20260905232459 | 68 | 68 | 3.0 | 5.0 | 0.00 | 0.00 | 0.00 | 82 | 1011.7 |
| 20260905231959 | 69 | 82 | 5.0 | 5.0 | 0.00 | 0.00 | 0.00 | 82 | 1011.5 |
| 20260905230959 | 69 | 78 | 3.0 | 4.0 | 0.00 | 0.00 | 0.00 | 81 | 1011.5 |
| 20260905230459 | 69 | 68 | 3.0 | 5.0 | 0.00 | 0.00 | 0.00 | 80 | 1011.4 |
| 20260905230002 | 69 | 78 | 4.0 | 5.0 | 0.00 | 0.00 | 0.00 | 79 | 1011.4 |
| 20260905225459 | 69 | 57 | 0.0 | 3.0 | 0.00 | 0.00 | 0.00 | 80 | 1011.3 |
| 20260905225000 | 70 | 57 | 0.0 | 1.0 | 0.00 | 0.00 | 0.00 | 80 | 1011.3 |
| 20260905224501 | 70 | 57 | 0.0 | 4.0 | 0.00 | 0.00 | 0.00 | 80 | 1011.3 |
| 20260905223959 | 70 | 57 | 2.0 | 4.0 | 0.00 | 0.00 | 0.00 | 79 | 1011.3 |
| 20260905223459 | 70 | 69 | 3.0 | 3.0 | 0.00 | 0.00 | 0.00 | 80 | 1011.4 |
| 20260905223000 | 70 | 65 | 2.0 | 3.0 | 0.00 | 0.00 | 0.00 | 81 | 1011.4 |
| 20260905222500 | 70 | 65 | 2.0 | 3.0 | 0.00 | 0.00 | 0.00 | 81 | 1011.4 |
| 20260905222000 | 70 | 65 | 0.0 | 3.0 | 0.00 | 0.00 | 0.00 | 80 | 1011.2 |
| 20260905221500 | 70 | 65 | 0.0 | 3.0 | 0.00 | 0.00 | 0.00 | 81 | 1011.2 |
| 20260905221001 | 70 | 73 | 1.0 | 3.0 | 0.00 | 0.00 | 0.00 | 81 | 1011.2 |
| 20260905220459 | 70 | 73 | 0.0 | 3.0 | 0.00 | 0.00 | 0.00 | 80 | 1011.1 |
| 20260905220001 | 70 | 73 | 2.0 | 2.0 | 0.00 | 0.00 | 0.00 | 81 | 1011.2 |
| 20260905215458 | 70 | 283 | 0.0 | 2.0 | 0.00 | 0.00 | 0.00 | 81 | 1011.2 |
| 20260905213959 | 70 | 283 | 0.0 | 1.0 | 0.00 | 0.00 | 0.00 | 82 | 1011.0 |
| 20260905213459 | 70 | 283 | 0.0 | 1.0 | 0.00 | 0.00 | 0.00 | 80 | 1010.9 |
| 20260905212959 | 70 | 283 | 0.0 | 1.0 | 0.00 | 0.00 | 0.00 | 82 | 1010.9 |
| 20260905212459 | 70 | 283 | 0.0 | 2.0 | 0.00 | 0.00 | 0.00 | 81 | 1010.9 |
| 20260905211959 | 71 | 283 | 1.0 | 2.0 | 0.00 | 0.00 | 0.00 | 81 | 1010.9 |
| 20260905211459 | 71 | 283 | 0.0 | 3.0 | 0.00 | 0.00 | 0.00 | 79 | 1010.9 |
| 20260905210959 | 71 | 283 | 2.0 | 3.0 | 0.00 | 0.00 | 0.00 | 78 | 1010.8 |
| 20260905210459 | 71 | 96 | 1.0 | 2.0 | 0.00 | 0.00 | 0.00 | 79 | 1010.6 |